Home   Weather   Seligman   Past weeks
Flag for USA

Past Weather in Seligman, Arizona, USA — Yesterday and Last 2 Weeks

Now
45 °F

Clear.


Feels Like: 41 °F
Forecast: 53 / 37 °F
Wind: 7 mph from Southwest

Location: Love Field

Current Time: Mar 28, 2020 at 9:10:34 pm

Latest Report: Mar 28, 2020 at 7:53 pm


Visibility: 10 mi

Pressure: 30.03 "Hg (24.71 "Hg at 1600m altitude)

Humidity: 35%

Dew Point: 19 °F

Location of SeligmanLocation

Past Weather in Seligman — Graph

°F

Seligman Temperature Yesterday

Maximum temperature yesterday: 45 °F (at 12:53 pm)
Minimum temperature yesterday: 30 °F (at 3:53 am)
Average temperature yesterday: 36 °F

High & Low Weather Summary for the Past Weeks

 TemperatureHumidityPressure
High60 °F (Mar 25, 1:36 pm)100% (Mar 18, 6:53 pm)30.19 "Hg (Mar 18, 6:53 pm)
Low26 °F (Mar 28, 5:53 am)20% (Mar 25, 3:53 pm)29.65 "Hg (Mar 18, 1:53 pm)
Average43 °F63%29.95 "Hg
* Reported Mar 13 7:53 pm — Mar 28 7:53 pm, Seligman. Weather by CustomWeather, © 2020

Note: Actual official high and low records may vary slightly from our data, if they occured in-between our weather recording intervals... More about our weather records

Seligman Weather History for the Previous 24 Hours

Scroll right to see more
 ConditionsComfort  
Time TempWeatherWind HumidityBarometerVisibility
7:53 pm
Sat, Mar 28
45 °FClear.7 mph35%30.03 "Hg10 mi
6:53 pm47 °FClear.9 mph33%30.05 "Hg10 mi
5:53 pm51 °FSunny.10 mph26%30.03 "Hg10 mi
4:53 pm52 °FSunny.3 mph26%30.01 "Hg10 mi
3:53 pm52 °FSunny.3 mph21%30.02 "Hg10 mi
2:53 pm52 °FSunny.N/A22%30.03 "Hg10 mi
1:53 pm51 °FSunny.6 mph22%30.06 "Hg10 mi
12:53 pm50 °FSunny.No wind22%30.09 "Hg10 mi
11:53 am48 °FSunny.3 mph25%30.11 "Hg10 mi
10:53 am46 °FSunny.3 mph26%30.11 "Hg10 mi
9:53 am44 °FSunny.No wind35%30.13 "Hg10 mi
8:53 am40 °FSunny.3 mph38%30.14 "Hg10 mi
7:53 am34 °FSunny.No wind56%30.14 "Hg10 mi
6:53 am26 °FSunny.No wind69%30.13 "Hg10 mi
5:53 am26 °FClear.3 mph69%30.12 "Hg10 mi
4:53 am27 °FClear.No wind69%30.11 "Hg10 mi
3:53 am27 °FClear.3 mph72%30.09 "Hg10 mi
2:53 am30 °FClear.6 mph64%30.08 "Hg10 mi
1:53 am29 °FClear.7 mph66%30.07 "Hg10 mi
12:53 am29 °FClear.7 mph66%30.07 "Hg10 mi
11:53 pm
Fri, Mar 27
30 °FClear.6 mph64%30.06 "Hg10 mi
10:53 pm35 °FClear.6 mph50%30.05 "Hg10 mi
9:53 pm33 °FClear.5 mph61%30.04 "Hg10 mi
Weather by CustomWeather, © 2020

See weather overview

Advertising